Location: Unspecified
(43.4680°N, 87.1740°E)
Time: 19:54:50
(UTC+00:00)

Cosmos 389 Rocket - Pass Details

Date: 17 April 2021
Orbit: 441 x 472 km, 81.1° (Epoch: 12 May)

Event Time Altitude Azimuth Distance (km) Brightness Sun altitude
Exits shadow 14:19:33 21° 79° (ENE) 1,106 3.9 -14.6°
Drops below altitude 10° 14:21:48 10° 40° (NE) 1,622 5.1 -15.0°
Sets 14:24:14 0° 25° (NNE) 2,509 6.3 -15.3°
